FLOCK 3K-2 (43895 NORAD) Tracking and Keplerian Element Data

This shows tracking and keplerian element data for the satellite.

Feedback or suggestion? Click here.




ElementValue
Catalog43895
NameFLOCK 3K-2
Epoch Orbit331
Epoch Day17.82280924
Epoch Year2019
RAAN287.1302
Inclination97.2997
Eccentricity0.0024862
Argument of Perigee167.999
Mean Anonmoly192.1845
Mean Motion15.23493498
Decay Rate5.31E-06
L11 43895U 18111V 19017.82280924 .00000531 00000-0 24998-4 0 9999
L22 43895 97.2997 287.1302 0024862 167.9990 192.1845 15.23493498 3315

Live tracking and technical data element details for FLOCK 3K-2 (NORAD 43895). FLOCK 3K-2 can be tracked NOW for your location showing map with azimuth and elevation plus other details from your city location.

Track the satellite on the map from your city or location and see movement details for azimuth, elevation, latitude, longitude, range, height, and movement on the map or in text.







IsCatalogInMostPopularTable: catalog: 43895, numindb: 18
Update: records affected: 1



GetName: 43895 FLOCK 3K-2

Hit Count: updated at: Fri, 18 Jan 2019 22:21:02 GMT